This is the latest recevied weather packets stored in our database for station/object EC1DIR-13. If no packets are shown the sender has not sent any weather packets the latest 10 day(s).
| Time | Temp. | Humidity | Pressure | Rain* | Wind** | Luminosity | Snow |
|---|---|---|---|---|---|---|---|
| 1777893352 | 16.67° C | 18% | 1013.6 hPa | 0 mm | - | 171 W/m² | - |
| 1777891562 | 16.67° C | 25% | 1013.5 hPa | 0 mm | - | 998 W/m² | - |
| 1777886145 | 14.44° C | 41% | 1014 hPa | 0 mm | - | 315 W/m² | - |
| 1777876221 | 10.56° C | 54% | 1013.3 hPa | 0 mm | - | 188 W/m² | - |
| 1777875319 | 9.44° C | 57% | 1013.2 hPa | 0 mm | - | 107 W/m² | - |
| 1777873511 | 7.78° C | 60% | 1013 hPa | 0 mm | - | 18 W/m² | - |
| 1777871709 | 7.78° C | 60% | 1012.9 hPa | 0 mm | - | 0 W/m² | - |
| 1777870811 | 7.78° C | 60% | 1012.8 hPa | 0 mm | - | 0 W/m² | - |
| 1777869907 | 7.78° C | 59% | 1012.7 hPa | 0 mm | - | 0 W/m² | - |
| 1777863674 | 8.89° C | 56% | 1013.2 hPa | 0 mm | - | 0 W/m² | - |
| 1777862756 | 8.89° C | 57% | 1013 hPa | 0 mm | - | 0 W/m² | - |
| 1777860054 | 8.89° C | 56% | 1013.1 hPa | 0 mm | - | 0 W/m² | - |
| 1777857349 | 9.44° C | 56% | 1013.2 hPa | 0 mm | - | 0 W/m² | - |
| 1777849230 | 12.22° C | 48% | 1013.9 hPa | 0 mm | - | 0 W/m² | - |
| 1777846525 | 12.78° C | 47% | 1013.9 hPa | 0 mm | - | 0 W/m² | - |
| 1777845624 | 13.33° C | 46% | 1013.8 hPa | 0 mm | - | 0 W/m² | - |
| 1777844723 | 13.33° C | 43% | 1013.7 hPa | 0 mm | - | 0 W/m² | - |
| 1777842921 | 13.89° C | 45% | 1013.8 hPa | 0 mm | - | 0 W/m² | - |
| 1777840222 | 14.44° C | 46% | 1013.2 hPa | 0 mm | - | 0 W/m² | - |
| 1777834817 | 15.56° C | 40% | 1012.3 hPa | 0 mm | - | 7 W/m² | - |
| 1777829414 | 17.22° C | 36% | 1012.1 hPa | 0 mm | - | 309 W/m² | - |
| 1777827613 | 17.22° C | 36% | 1012.1 hPa | 0 mm | - | 125 W/m² | - |
| 1777824912 | 17.22° C | 34% | 1012.3 hPa | 0 mm | - | 206 W/m² | - |
| 1777821308 | 17.22° C | 29% | 1012.5 hPa | 0 mm | - | 246 W/m² | - |
| 1777816860 | 17.78° C | 36% | 1012.9 hPa | 0 mm | - | 742 W/m² | - |
* Rain latest hour (hover to see other rain measurements)
** Current wind speed in m/s (hover to see current wind gust speed)